Location: Newark
(38.0892°N, 27.7378°E)
Time: 03:00:24
(UTC+00:00)

N. Korean satellite - Pass Details

Date: 10 December 2019
Orbit: 454 x 507 km, 97.2° (Epoch: 23 January)

Event Time Altitude Azimuth Distance (km) Brightness Sun altitude
Rises 15:34:24 0° 181° (S) 2,597 10.6 -8.8°
Reaches altitude 10° 15:36:32 10° 187° (S) 1,717 9.8 -9.2°
Maximum altitude 15:40:06 45° 261° (W) 701 7.9 -9.9°
Drops below altitude 10° 15:43:41 10° 335° (NNW) 1,722 9.4 -10.5°
Sets 15:45:50 0° 342° (NNW) 2,605 10.2 -10.9°
